ANA1891 RJTT-RJTH

Flight info

Callsign ANA1891
Flight time 0h 33m
Altitude 20000
Route VAMOS HATSU/N0396F190 Y587 SANGO
Aircraft B738/M-SDE2E3FGHIRWXY/LB1

Departure

Time 2026-04-25 08:50
Airport Tokyo Haneda International Airport (RJTT)

Arrival

Time 2026-04-25 09:23
Airport Hachijojima Airport (RJTH)
Time Latitude Longitude Altitude Speed Heading
2026-04-25 08:27 35.56093 139.78241 23 ft 0 kts 240°
2026-04-25 08:34 35.56103 139.78262 23 ft 4 kts 237°
2026-04-25 08:34 35.56118 139.78289 23 ft 4 kts 231°
2026-04-25 08:35 35.56136 139.78314 23 ft 4 kts 220°
2026-04-25 08:35 35.56158 139.78331 23 ft 4 kts 190°
2026-04-25 08:35 35.56174 139.78330 23 ft 1 kts 153°
2026-04-25 08:35 35.56177 139.78329 23 ft 0 kts 153°
2026-04-25 08:38 35.56166 139.78336 23 ft 7 kts 153°
2026-04-25 08:39 35.56117 139.78369 23 ft 8 kts 149°
2026-04-25 08:39 35.56069 139.78400 23 ft 8 kts 152°
2026-04-25 08:39 35.56025 139.78436 25 ft 7 kts 138°
2026-04-25 08:39 35.56008 139.78493 23 ft 7 kts 86°
2026-04-25 08:40 35.56031 139.78562 23 ft 11 kts 62°
2026-04-25 08:40 35.56031 139.78652 23 ft 11 kts 118°
2026-04-25 08:40 35.55971 139.78712 23 ft 14 kts 149°
2026-04-25 08:40 35.55870 139.78785 23 ft 17 kts 150°
2026-04-25 08:41 35.55768 139.78856 23 ft 16 kts 150°
2026-04-25 08:41 35.55671 139.78926 23 ft 16 kts 149°
2026-04-25 08:41 35.55578 139.78992 23 ft 15 kts 150°
2026-04-25 08:41 35.55487 139.79056 24 ft 15 kts 149°
2026-04-25 08:42 35.55400 139.79116 24 ft 15 kts 150°
2026-04-25 08:42 35.55299 139.79189 24 ft 17 kts 148°
2026-04-25 08:42 35.55197 139.79261 24 ft 17 kts 150°
2026-04-25 08:42 35.55099 139.79328 23 ft 16 kts 150°
2026-04-25 08:43 35.55007 139.79397 23 ft 15 kts 148°
2026-04-25 08:43 35.54918 139.79460 23 ft 15 kts 153°
2026-04-25 08:43 35.54831 139.79519 23 ft 14 kts 149°
2026-04-25 08:43 35.54750 139.79579 24 ft 13 kts 149°
2026-04-25 08:44 35.54672 139.79635 23 ft 13 kts 153°
2026-04-25 08:44 35.54580 139.79696 23 ft 17 kts 150°
2026-04-25 08:44 35.54478 139.79767 23 ft 17 kts 150°
2026-04-25 08:44 35.54381 139.79838 23 ft 16 kts 150°
2026-04-25 08:45 35.54286 139.79904 23 ft 15 kts 149°
2026-04-25 08:45 35.54197 139.79970 23 ft 15 kts 148°
2026-04-25 08:45 35.54111 139.80033 23 ft 14 kts 149°
2026-04-25 08:45 35.54027 139.80090 24 ft 13 kts 151°
2026-04-25 08:46 35.53945 139.80149 24 ft 14 kts 149°
2026-04-25 08:46 35.53855 139.80192 25 ft 14 kts 184°
2026-04-25 08:46 35.53786 139.80121 23 ft 13 kts 239°
2026-04-25 08:46 35.53731 139.80036 26 ft 13 kts 203°
2026-04-25 08:47 35.53650 139.80066 23 ft 13 kts 150°
2026-04-25 08:47 35.53549 139.80138 23 ft 19 kts 149°
2026-04-25 08:47 35.53435 139.80219 23 ft 19 kts 150°
2026-04-25 08:47 35.53326 139.80298 23 ft 18 kts 148°
2026-04-25 08:48 35.53219 139.80374 23 ft 17 kts 151°
2026-04-25 08:48 35.53116 139.80446 23 ft 17 kts 152°
2026-04-25 08:48 35.53016 139.80514 22 ft 16 kts 149°
2026-04-25 08:48 35.52921 139.80583 23 ft 16 kts 148°
2026-04-25 08:49 35.52843 139.80671 24 ft 15 kts 131°
2026-04-25 08:49 35.52806 139.80779 22 ft 14 kts 73°
2026-04-25 08:49 35.52896 139.80892 23 ft 38 kts 43°
2026-04-25 08:49 35.53262 139.81307 22 ft 104 kts 44°
2026-04-25 08:50 35.53931 139.82063 47 ft 152 kts 42°
2026-04-25 08:50 35.54762 139.82891 537 ft 160 kts 43°
2026-04-25 08:50 35.55646 139.83842 1015 ft 173 kts 45°
2026-04-25 08:50 35.56307 139.85009 1740 ft 167 kts 80°
2026-04-25 08:51 35.56199 139.86495 2117 ft 189 kts 108°
2026-04-25 08:51 35.55797 139.88141 2337 ft 213 kts 106°
2026-04-25 08:51 35.55367 139.89947 2680 ft 224 kts 107°
2026-04-25 08:51 35.54926 139.91792 3210 ft 228 kts 107°
2026-04-25 08:52 35.54297 139.93570 3727 ft 232 kts 129°
2026-04-25 08:52 35.52987 139.94735 4221 ft 239 kts 160°
2026-04-25 08:52 35.51325 139.94976 4677 ft 248 kts 184°
2026-04-25 08:52 35.49556 139.94632 4988 ft 264 kts 191°
2026-04-25 08:53 35.47713 139.94168 5573 ft 274 kts 192°
2026-04-25 08:53 35.45813 139.93673 6169 ft 285 kts 196°
2026-04-25 08:53 35.44024 139.92678 6977 ft 283 kts 211°
2026-04-25 08:53 35.42304 139.91463 7709 ft 286 kts 211°
2026-04-25 08:54 35.40581 139.90235 8513 ft 287 kts 211°
2026-04-25 08:54 35.38851 139.89009 9299 ft 289 kts 211°
2026-04-25 08:54 35.37125 139.87795 10058 ft 291 kts 211°
2026-04-25 08:54 35.35329 139.86538 10466 ft 307 kts 211°
2026-04-25 08:55 35.33406 139.85194 10634 ft 330 kts 211°
2026-04-25 08:55 35.31347 139.83768 10806 ft 350 kts 210°
2026-04-25 08:55 35.29173 139.82268 11074 ft 365 kts 210°
2026-04-25 08:55 35.26928 139.80713 11498 ft 374 kts 210°
2026-04-25 08:56 35.24643 139.79131 12050 ft 380 kts 211°
2026-04-25 08:56 35.22328 139.77539 12666 ft 383 kts 211°
2026-04-25 08:56 35.20026 139.75876 13311 ft 385 kts 217°
2026-04-25 08:56 35.18024 139.73719 14028 ft 384 kts 226°
2026-04-25 08:57 35.16127 139.71411 14662 ft 385 kts 226°
2026-04-25 08:57 35.14216 139.69102 15325 ft 387 kts 225°
2026-04-25 08:57 35.12293 139.66809 16034 ft 387 kts 225°
2026-04-25 08:57 35.10363 139.64537 16828 ft 384 kts 225°
2026-04-25 08:58 35.08441 139.62291 17619 ft 382 kts 225°
2026-04-25 08:58 35.06517 139.60049 18323 ft 382 kts 225°
2026-04-25 08:58 35.04592 139.57808 18896 ft 384 kts 225°
2026-04-25 08:58 35.02648 139.55553 19401 ft 386 kts 225°
2026-04-25 08:59 35.00680 139.53299 19850 ft 391 kts 223°
2026-04-25 08:59 34.98334 139.51554 20192 ft 402 kts 205°
2026-04-25 08:59 34.95573 139.50690 20220 ft 419 kts 191°
2026-04-25 08:59 34.92609 139.50777 20233 ft 436 kts 176°
2026-04-25 09:00 34.89621 139.51423 20216 ft 434 kts 174°
2026-04-25 09:00 34.86662 139.52134 20215 ft 433 kts 173°
2026-04-25 09:00 34.83709 139.52847 20216 ft 433 kts 174°
2026-04-25 09:00 34.80753 139.53544 20217 ft 432 kts 174°
2026-04-25 09:01 34.77798 139.54226 20202 ft 432 kts 174°
2026-04-25 09:01 34.74837 139.54893 20211 ft 433 kts 174°
2026-04-25 09:01 34.71864 139.55554 20224 ft 434 kts 174°
2026-04-25 09:01 34.68894 139.56209 20220 ft 435 kts 174°
2026-04-25 09:02 34.65911 139.56864 20221 ft 436 kts 174°
2026-04-25 09:02 34.62924 139.57521 20227 ft 436 kts 174°
2026-04-25 09:02 34.60949 139.57954 20216 ft 436 kts 174°
2026-04-25 09:02 34.57959 139.58610 20217 ft 437 kts 174°
2026-04-25 09:03 34.54962 139.59267 20230 ft 438 kts 174°
2026-04-25 09:03 34.50944 139.60149 20229 ft 439 kts 174°
2026-04-25 09:03 34.48950 139.60589 20229 ft 439 kts 174°
2026-04-25 09:03 34.45942 139.61249 20229 ft 440 kts 174°
2026-04-25 09:04 34.42933 139.61908 20219 ft 440 kts 174°
2026-04-25 09:04 34.39922 139.62566 20220 ft 440 kts 174°
2026-04-25 09:04 34.36910 139.63221 20223 ft 440 kts 174°
2026-04-25 09:04 34.33900 139.63875 20228 ft 440 kts 174°
2026-04-25 09:05 34.30901 139.64526 20215 ft 433 kts 174°
2026-04-25 09:05 34.27998 139.65160 20186 ft 416 kts 174°
2026-04-25 09:05 34.25176 139.65774 19798 ft 408 kts 174°
2026-04-25 09:05 34.22390 139.66376 19295 ft 404 kts 174°
2026-04-25 09:06 34.19638 139.66969 18806 ft 400 kts 174°
2026-04-25 09:06 34.16907 139.67557 18244 ft 397 kts 174°
2026-04-25 09:06 34.14198 139.68139 17668 ft 394 kts 174°
2026-04-25 09:06 34.11509 139.68718 17132 ft 390 kts 173°
2026-04-25 09:07 34.08849 139.69290 16606 ft 387 kts 173°
2026-04-25 09:07 34.06214 139.69857 16083 ft 383 kts 173°
2026-04-25 09:07 34.03603 139.70419 15586 ft 380 kts 173°
2026-04-25 09:07 34.01015 139.70975 15094 ft 376 kts 173°
2026-04-25 09:08 33.98450 139.71526 14605 ft 373 kts 173°
2026-04-25 09:08 33.95906 139.72072 14128 ft 370 kts 173°
2026-04-25 09:08 33.93387 139.72612 13602 ft 367 kts 173°
2026-04-25 09:08 33.90888 139.73147 13115 ft 363 kts 173°
2026-04-25 09:09 33.88417 139.73677 12664 ft 358 kts 173°
2026-04-25 09:09 33.85972 139.74201 12187 ft 355 kts 173°
2026-04-25 09:09 33.83568 139.74717 11582 ft 357 kts 173°
2026-04-25 09:09 33.81130 139.75233 11099 ft 355 kts 173°
2026-04-25 09:10 33.78729 139.75739 10916 ft 344 kts 174°
2026-04-25 09:10 33.76406 139.76239 10733 ft 334 kts 172°
2026-04-25 09:10 33.74154 139.76723 10594 ft 324 kts 173°
2026-04-25 09:10 33.71970 139.77195 10467 ft 314 kts 173°
2026-04-25 09:11 33.67793 139.78075 10234 ft 296 kts 173°
2026-04-25 09:11 33.65796 139.78502 10117 ft 288 kts 172°
2026-04-25 09:11 33.63857 139.78918 9988 ft 280 kts 173°
2026-04-25 09:12 33.61949 139.79317 9728 ft 277 kts 172°
2026-04-25 09:12 33.60056 139.79712 9475 ft 275 kts 173°
2026-04-25 09:12 33.58175 139.80111 9196 ft 274 kts 172°
2026-04-25 09:12 33.56302 139.80509 8926 ft 272 kts 172°
2026-04-25 09:13 33.54440 139.80901 8657 ft 271 kts 171°
2026-04-25 09:13 33.52586 139.81252 8389 ft 268 kts 178°
2026-04-25 09:13 33.50734 139.81199 8129 ft 265 kts 184°
2026-04-25 09:13 33.48896 139.81052 7864 ft 264 kts 184°
2026-04-25 09:14 33.47064 139.80918 7606 ft 263 kts 183°
2026-04-25 09:14 33.45243 139.80802 7347 ft 262 kts 182°
2026-04-25 09:14 33.43433 139.80697 7076 ft 261 kts 182°
2026-04-25 09:14 33.41619 139.80597 6811 ft 260 kts 181°
2026-04-25 09:15 33.39819 139.80501 6546 ft 259 kts 181°
2026-04-25 09:15 33.38030 139.80325 6263 ft 259 kts 193°
2026-04-25 09:15 33.36370 139.79496 6015 ft 258 kts 205°
2026-04-25 09:15 33.34771 139.78531 5755 ft 256 kts 204°
2026-04-25 09:16 33.33205 139.77588 5640 ft 249 kts 204°
2026-04-25 09:16 33.31678 139.76671 5517 ft 242 kts 204°
2026-04-25 09:16 33.30191 139.75788 5403 ft 235 kts 202°
2026-04-25 09:16 33.28724 139.74921 5302 ft 236 kts 203°
2026-04-25 09:17 33.25798 139.73203 4936 ft 234 kts 200°
2026-04-25 09:17 33.24334 139.72341 4691 ft 235 kts 200°
2026-04-25 09:17 33.22890 139.71488 4461 ft 234 kts 201°
2026-04-25 09:18 33.21431 139.70632 4219 ft 233 kts 200°
2026-04-25 09:18 33.19974 139.69787 3967 ft 232 kts 199°
2026-04-25 09:18 33.18535 139.68946 3772 ft 227 kts 200°
2026-04-25 09:18 33.17149 139.68131 3557 ft 215 kts 200°
2026-04-25 09:19 33.15869 139.67376 3466 ft 194 kts 199°
2026-04-25 09:19 33.14708 139.66694 3476 ft 182 kts 199°
2026-04-25 09:19 33.13567 139.66079 3471 ft 175 kts 190°
2026-04-25 09:19 33.12433 139.65830 3310 ft 164 kts 174°
2026-04-25 09:20 33.11304 139.65864 2765 ft 165 kts 163°
2026-04-25 09:20 33.10177 139.66238 2006 ft 167 kts 144°
2026-04-25 09:20 33.09443 139.67028 1904 ft 127 kts 112°
2026-04-25 09:20 33.09142 139.68024 1483 ft 127 kts 98°
2026-04-25 09:21 33.09044 139.69031 1217 ft 119 kts 90°
2026-04-25 09:21 33.09069 139.70026 1117 ft 119 kts 82°
2026-04-25 09:21 33.09210 139.71023 1110 ft 125 kts 78°
2026-04-25 09:21 33.09436 139.72010 1010 ft 120 kts 71°
2026-04-25 09:22 33.09753 139.72927 905 ft 123 kts 68°
2026-04-25 09:22 33.10083 139.73890 784 ft 127 kts 69°
2026-04-25 09:22 33.10383 139.74885 675 ft 129 kts 71°
2026-04-25 09:22 33.10687 139.75893 620 ft 130 kts 70°
2026-04-25 09:23 33.11001 139.76899 470 ft 127 kts 66°
2026-04-25 09:23 33.11275 139.77855 297 ft 116 kts 66°
2026-04-25 09:23 33.11463 139.78427 300 ft 32 kts 69°
2026-04-25 09:23 33.11555 139.78720 297 ft 43 kts 70°
2026-04-25 09:24 33.11648 139.79021 296 ft 35 kts 69°
2026-04-25 09:24 33.11741 139.79312 296 ft 32 kts 67°
2026-04-25 09:24 33.11806 139.79503 294 ft 16 kts 54°
2026-04-25 09:24 33.11823 139.79557 293 ft 0 kts 133°
2026-04-25 09:25 33.11811 139.79557 296 ft 6 kts 184°
2026-04-25 09:25 33.11787 139.79500 295 ft 18 kts 254°
2026-04-25 09:25 33.11728 139.79284 296 ft 35 kts 251°
2026-04-25 09:25 33.11643 139.79008 293 ft 35 kts 250°
2026-04-25 09:26 33.11561 139.78751 296 ft 32 kts 249°
2026-04-25 09:26 33.11486 139.78510 297 ft 30 kts 249°
2026-04-25 09:26 33.11465 139.78371 297 ft 14 kts 295°
2026-04-25 09:26 33.11510 139.78335 300 ft 5 kts 349°
2026-04-25 09:27 33.11546 139.78342 297 ft 5 kts 11°
2026-04-25 09:27 33.11582 139.78332 300 ft 5 kts 340°
2026-04-25 09:27 33.11599 139.78325 297 ft 0 kts 341°